Tracking 30692 objects as of 16-Jun-2025
HD Live streaming from Space Station
objects crossing your sky now

STARLINK-31122

Track STARLINK-31122 now!
10-day predictions
STARLINK-31122 is classified as:


NORAD ID: 58774
Int'l Code: 2024-011K
Perigee: 558.1 km
Apogee: 559.8 km
Inclination: 53.2 °
Period: 95.7 minutes
Semi major axis: 6929 km
RCS: Unknown
Launch date: January 14, 2024
Source: United States (US)
Launch site: AIR FORCE WESTERN TEST RANGE (AFWTR)
Your satellite tracking list
Your tracking list is empty




NASA's NSSDC Master Catalog

Two Line Element Set (TLE):
1 58774U 24011K   25167.38311755  .00004456  00000-0  33057-3 0  9993
2 58774  53.1583 166.0001 0001263  71.3298 288.7829 15.04907521 79569
Source of the keplerian elements: AFSPC